Weather History for Statesville, NC

Change the Weather History Date:

Wednesday, May 15, 2013

  Actual Average (KHKY) Record (KHKY)
Temperature  
Mean Temperature 66 °F -  
Max Temperature 85 °F 76 °F 90 °F (1956)
Min Temperature 48 °F 55 °F 42 °F (1959)
Cooling Degree Days 2    
Growing Degree Days 16 (Base 50)    
Moisture  
Dew Point 54 °F    
Average Humidity 62    
Maximum Humidity 92    
Minimum Humidity 40    
Precipitation  
Precipitation 0.00 in - - ()
Sea Level Pressure  
Sea Level Pressure 30.02 in    
Wind  
Wind Speed 4 mph (SSW)    
Max Wind Speed 10 mph    
Max Gust Speed 17 mph    
Visibility 10 miles    
Events      
Averages and records for this station are not official NWS values.
T = Trace of Precipitation, MM = Missing Value Source: NWS Daily Summary

Daily Weather History Graph

Daily Weather History Graph

Search for Another Location

Airport:

Trip Planner

Search our weather history database for the weather conditions in past years. The results will help you decide how hot, cold, wet, or windy it might be!

Date:

Astronomy

May. 15, 2013 Rise Set
Actual Time 6:18 AM EDT 8:22 PM EDT
Civil Twilight 5:49 AM EDT 8:50 PM EDT
Nautical Twilight 5:15 AM EDT 9:25 PM EDT
Astronomical Twilight 4:38 AM EDT 10:03 PM EDT
Moon 10:50 AM EDT (5/15) 12:09 AM EDT (5/15)
Length of Visible Light 15h 00m
Length of Day
14h 04m
Waxing Crescent, 26% of the Moon is Illuminated
May 15
Waxing Crescent
May 18
First Quarter
May 25
Full
May 31
Last Quarter
Jun 8
New

Hourly Weather History & Observations

Time (EDT) Temp. Heat Index Dew Point Humidity Pressure Visibility Wind Dir Wind Speed Gust Speed Precip Events Conditions
12:15 AM 57.7 °F - 44.2 °F 61% 30.07 in 10.0 mi SSW 4.6 mph - N/A   Clear
12:35 AM 57.0 °F - 44.6 °F 63% 30.06 in 10.0 mi SSW 3.5 mph - N/A   Clear
12:55 AM 55.9 °F - 44.8 °F 66% 30.06 in 10.0 mi SSW 3.5 mph - N/A   Clear
1:15 AM 56.3 °F - 44.8 °F 65% 30.06 in 10.0 mi SW 3.5 mph - N/A   Clear
1:35 AM 54.9 °F - 45.1 °F 70% 30.05 in 10.0 mi SSW 3.5 mph - N/A   Clear
1:55 AM 55.0 °F - 45.5 °F 70% 30.05 in 10.0 mi South 3.5 mph - N/A   Clear
2:35 AM 56.3 °F - 46.6 °F 70% 30.04 in 10.0 mi SSW 4.6 mph - N/A   Clear
2:55 AM 56.7 °F - 47.3 °F 71% 30.04 in 10.0 mi Calm Calm - N/A   Clear
3:15 AM 56.8 °F - 47.5 °F 71% 30.04 in 10.0 mi Calm Calm - N/A   Clear
3:35 AM 53.6 °F - 46.6 °F 77% 30.04 in 10.0 mi Calm Calm - N/A   Clear
3:55 AM 52.2 °F - 47.3 °F 83% 30.04 in 10.0 mi Calm Calm - N/A   Clear
4:15 AM 51.1 °F - 47.3 °F 87% 30.04 in 10.0 mi Calm Calm - N/A   Clear
4:35 AM 50.2 °F - 46.9 °F 89% 30.04 in 10.0 mi Calm Calm - N/A   Clear
4:55 AM 50.9 °F - 47.1 °F 87% 30.05 in 10.0 mi Calm Calm - N/A   Clear
5:15 AM 50.4 °F - 47.3 °F 89% 30.05 in 10.0 mi Calm Calm - N/A   Clear
5:35 AM 50.5 °F - 47.3 °F 89% 30.05 in 10.0 mi Calm Calm - N/A   Clear
5:55 AM 49.5 °F - 46.6 °F 90% 30.06 in 10.0 mi Calm Calm - N/A   Clear
6:15 AM 48.6 °F - 46.2 °F 92% 30.06 in 10.0 mi Calm Calm - N/A   Clear
6:35 AM 50.4 °F - 47.8 °F 91% 30.06 in 10.0 mi Calm Calm - N/A   Clear
6:55 AM 50.2 °F - 47.1 °F 89% 30.06 in 10.0 mi Calm Calm - N/A   Clear
7:15 AM 52.5 °F - 48.9 °F 88% 30.06 in 10.0 mi Calm Calm - N/A   Clear
7:35 AM 54.7 °F - 50.0 °F 84% 30.06 in 10.0 mi SSW 4.6 mph - N/A   Clear
7:55 AM 57.0 °F - 50.7 °F 79% 30.07 in 10.0 mi SW 3.5 mph - N/A   Clear
8:15 AM 58.1 °F - 51.3 °F 78% 30.06 in 10.0 mi Calm Calm - N/A   Clear
8:35 AM 59.5 °F - 51.8 °F 76% 30.07 in 10.0 mi SSW 6.9 mph - N/A   Clear
8:55 AM 62.1 °F - 53.2 °F 73% 30.08 in 10.0 mi SW 5.8 mph - N/A   Clear
9:15 AM 64.4 °F - 54.1 °F 69% 30.08 in 10.0 mi SW 5.8 mph - N/A   Clear
9:35 AM 66.2 °F - 55.4 °F 68% 30.08 in 10.0 mi Calm Calm - N/A   Clear
9:55 AM 68.2 °F - 56.1 °F 65% 30.08 in 10.0 mi SSW 6.9 mph - N/A   Clear
10:15 AM 69.6 °F - 56.8 °F 64% 30.08 in 10.0 mi SSW 5.8 mph - N/A   Clear
10:35 AM 71.4 °F - 57.6 °F 62% 30.07 in 10.0 mi South 3.5 mph - N/A   Clear
10:55 AM 73.9 °F - 57.4 °F 56% 30.07 in 10.0 mi SSW 5.8 mph - N/A   Clear
11:15 AM 75.6 °F - 57.6 °F 53% 30.07 in 10.0 mi SSW 5.8 mph - N/A   Clear
11:35 AM 76.5 °F - 56.7 °F 50% 30.07 in 10.0 mi SSW 8.1 mph - N/A   Clear
11:55 AM 78.3 °F - 57.6 °F 49% 30.06 in 10.0 mi SW 5.8 mph - N/A   Clear
12:15 PM 79.0 °F - 57.4 °F 47% 30.06 in 10.0 mi SSW 8.1 mph - N/A   Clear
12:35 PM 80.2 °F 80.5 °F 57.4 °F 45% 30.05 in 10.0 mi SW 4.6 mph - N/A   Clear
12:55 PM 81.9 °F 81.8 °F 58.1 °F 44% 30.04 in 10.0 mi SSW 5.8 mph - N/A   Clear
1:15 PM 82.9 °F 82.7 °F 58.1 °F 43% 30.03 in 10.0 mi WSW 5.8 mph - N/A   Clear
1:55 PM 83.1 °F 82.7 °F 57.9 °F 42% 30.02 in 10.0 mi SSW 8.1 mph - N/A   Clear
2:15 PM 83.5 °F 82.9 °F 57.6 °F 41% 30.01 in 10.0 mi SSW 6.9 mph - N/A   Clear
2:35 PM 83.8 °F 83.4 °F 58.5 °F 42% 30.00 in 10.0 mi SSE 4.6 mph - N/A   Clear
2:55 PM 84.0 °F 83.8 °F 59.0 °F 43% 30.00 in 10.0 mi South 5.8 mph - N/A   Scattered Clouds
3:15 PM 84.4 °F 84.0 °F 59.0 °F 42% 29.99 in 10.0 mi South 8.1 mph - N/A   Scattered Clouds
3:35 PM 84.7 °F 84.6 °F 59.7 °F 43% 29.99 in 10.0 mi SSW 9.2 mph - N/A   Scattered Clouds
3:55 PM 85.1 °F 85.0 °F 60.3 °F 43% 29.98 in 10.0 mi SSW 5.8 mph - N/A   Clear
4:15 PM 85.3 °F 85.0 °F 60.1 °F 42% 29.97 in 10.0 mi SSW 9.2 mph 17.3 mph N/A   Scattered Clouds
4:35 PM 85.3 °F 84.8 °F 58.8 °F 41% 29.96 in 10.0 mi SW 10.4 mph - N/A   Clear
4:55 PM 85.1 °F 84.4 °F 58.5 °F 40% 29.96 in 10.0 mi SSW 9.2 mph - N/A   Clear
5:35 PM 85.3 °F 84.8 °F 58.8 °F 41% 29.95 in 10.0 mi SSW 9.2 mph - N/A   Clear
5:55 PM 84.9 °F 84.4 °F 58.8 °F 41% 29.94 in 10.0 mi SSW 9.2 mph - N/A   Clear
6:15 PM 84.4 °F 83.7 °F 57.6 °F 40% 29.94 in 10.0 mi SSW 10.4 mph - N/A   Clear
6:35 PM 83.8 °F 83.4 °F 58.6 °F 42% 29.94 in 10.0 mi SSW 6.9 mph - N/A   Clear
6:55 PM 83.1 °F 82.9 °F 58.6 °F 43% 29.94 in 10.0 mi SSW 10.4 mph - N/A   Clear
7:15 PM 82.4 °F 82.3 °F 58.6 °F 44% 29.94 in 10.0 mi SSW 8.1 mph - N/A   Clear
7:35 PM 81.5 °F 81.6 °F 58.5 °F 45% 29.95 in 10.0 mi SSW 6.9 mph - N/A   Clear
7:55 PM 80.6 °F 80.9 °F 58.3 °F 46% 29.95 in 10.0 mi SSW 5.8 mph - N/A   Clear
8:15 PM 79.5 °F - 58.3 °F 48% 29.95 in 10.0 mi SSW 5.8 mph - N/A   Clear
8:35 PM 78.3 °F - 58.5 °F 50% 29.96 in 10.0 mi SW 3.5 mph - N/A   Clear
8:55 PM 77.0 °F - 58.5 °F 53% 29.96 in 10.0 mi SW 3.5 mph - N/A   Clear
9:15 PM 75.9 °F - 58.5 °F 55% 29.97 in 10.0 mi Calm Calm - N/A   Clear
9:35 PM 72.0 °F - 59.4 °F 64% 29.97 in 10.0 mi WSW 3.5 mph - N/A   Clear
9:55 PM 73.8 °F - 59.0 °F 60% 29.98 in 10.0 mi SW 3.5 mph - N/A   Clear
10:15 PM 73.4 °F - 58.8 °F 60% 29.98 in 10.0 mi SW 3.5 mph - N/A   Clear
10:35 PM 72.0 °F - 59.0 °F 64% 29.98 in 10.0 mi SW 4.6 mph - N/A   Clear
10:55 PM 72.0 °F - 59.0 °F 64% 29.98 in 10.0 mi SW 4.6 mph - N/A   Clear
11:15 PM 71.8 °F - 59.0 °F 64% 29.97 in 10.0 mi Calm Calm - N/A   Clear
11:35 PM 71.6 °F - 59.0 °F 64% 29.97 in 10.0 mi Calm Calm - N/A   Clear
11:55 PM 67.1 °F - 59.2 °F 76% 29.97 in 10.0 mi Calm Calm - N/A   Clear